Charlevoix, MI

9:01 AM EDT on March 25, 2017 (GMT -0400)
Charlevoix Municipal

Weather History for KCVX - October, 2014

Change the Weather History Date:

Tuesday, October 28, 2014

  Actual Average Record
Temperature  
Mean Temperature 56 °F -  
Max Temperature 64 °F 54 °F 64 °F (2014)
Min Temperature 48 °F 37 °F 26 °F (2005)
Degree Days  
Heating Degree Days 9    
Growing Degree Days 6 (Base 50)    
Moisture  
Dew Point 47 °F    
Average Humidity 83    
Maximum Humidity 99    
Minimum Humidity 66    
Precipitation  
Precipitation 0.00 in - - ()
Sea Level Pressure  
Sea Level Pressure 29.64 in    
Wind  
Wind Speed 14 mph (SW)    
Max Wind Speed 26 mph    
Max Gust Speed 34 mph    
Visibility 10 miles    
Events Rain    
Averages and records for this station are not official NWS values.
T = Trace of Precipitation, MM = Missing Value Source: NWS Daily Summary

Daily Weather History Graph

Daily Weather History Graph

Search for Another Location

Airport or City:

Trip Planner

Search our weather history database for the weather conditions in past years. The results will help you decide how hot, cold, wet, or windy it might be!

Date:

Astronomy

Oct. 28, 2014 Rise Set
Actual Time 8:14 AM EDT 6:34 PM EDT
Civil Twilight 7:44 AM EDT 7:04 PM EDT
Nautical Twilight 7:09 AM EDT 7:39 PM EDT
Astronomical Twilight 6:35 AM EDT 8:13 PM EDT
Moon 12:48 PM EDT (10/28) 10:34 PM EDT (10/28)
Length of Visible Light 11h 20m
Length of Day
10h 19m
Waxing Crescent, 24% of the Moon is Illuminated
Oct 28
Waxing Crescent
Oct 30
First Quarter
Nov 6
Full
Nov 14
Last Quarter
Nov 22
New

Hourly Weather History & Observations

Time (EDT) Temp. Dew Point Humidity Pressure Visibility Wind Dir Wind Speed Gust Speed Precip Events Conditions
12:14 AM 51.3 °F 49.1 °F 92% 29.62 in 10.0 mi ESE 10.4 mph - N/A   Overcast
12:34 AM 51.3 °F 48.7 °F 91% 29.61 in 10.0 mi ESE 12.7 mph - N/A   Overcast
12:55 AM 51.4 °F 49.1 °F 92% 29.61 in 10.0 mi ESE 11.5 mph - N/A   Overcast
1:15 AM 51.4 °F 49.1 °F 92% 29.60 in 10.0 mi ESE 10.4 mph - N/A   Overcast
1:34 AM 51.8 °F 49.1 °F 90% 29.59 in 10.0 mi ESE 11.5 mph - N/A   Overcast
1:55 AM 51.8 °F 49.1 °F 90% 29.59 in 10.0 mi ESE 11.5 mph - N/A   Overcast
2:14 AM 52.0 °F 49.5 °F 91% 29.59 in 10.0 mi ESE 8.1 mph - N/A   Overcast
2:34 AM 52.2 °F 49.6 °F 91% 29.57 in 10.0 mi ESE 8.1 mph - N/A   Overcast
2:55 AM 52.5 °F 50.0 °F 91% 29.56 in 10.0 mi ESE 9.2 mph - N/A   Overcast
3:14 AM 52.7 °F 50.2 °F 91% 29.55 in 10.0 mi ESE 8.1 mph - N/A   Overcast
3:34 AM 52.9 °F 50.4 °F 91% 29.55 in 10.0 mi ESE 6.9 mph - N/A   Overcast
3:55 AM 53.6 °F 50.9 °F 91% 29.53 in 10.0 mi ESE 6.9 mph - N/A   Overcast
4:14 AM 54.0 °F 51.3 °F 91% 29.52 in 10.0 mi ESE 6.9 mph - N/A   Overcast
4:35 AM 54.1 °F 51.8 °F 92% 29.51 in 10.0 mi ESE 5.8 mph - N/A   Overcast
4:55 AM 55.4 °F 53.2 °F 92% 29.50 in 10.0 mi SE 5.8 mph - N/A   Overcast
5:14 AM 58.5 °F 55.4 °F 90% 29.50 in 10.0 mi SSE 6.9 mph - N/A   Overcast
5:35 AM 61.5 °F 56.7 °F 84% 29.49 in 10.0 mi South 6.9 mph - N/A   Overcast
5:55 AM 64.2 °F 57.7 °F 79% 29.49 in 10.0 mi South 8.1 mph - N/A   Overcast
6:14 AM 64.0 °F 57.7 °F 80% 29.50 in 10.0 mi SW 10.4 mph 21.9 mph N/A   Overcast
6:35 AM 59.7 °F 57.2 °F 91% 29.52 in 10.0 mi SW 10.4 mph - N/A Rain Light Rain
6:55 AM 59.0 °F 56.8 °F 93% 29.52 in 7.0 mi SW 15.0 mph 23.0 mph N/A   Overcast
7:14 AM 57.0 °F 55.0 °F 93% 29.54 in 7.0 mi SW 15.0 mph 25.3 mph N/A   Overcast
7:35 AM 54.9 °F 53.6 °F 96% 29.55 in 7.0 mi WSW 13.8 mph 21.9 mph N/A   Overcast
7:55 AM 53.6 °F 52.7 °F 97% 29.57 in 7.0 mi WSW 12.7 mph 21.9 mph N/A   Overcast
8:14 AM 52.7 °F 52.0 °F 97% 29.57 in 7.0 mi WSW 13.8 mph 23.0 mph N/A   Overcast
8:35 AM 52.0 °F 51.6 °F 99% 29.58 in 5.0 mi WSW 16.1 mph 24.2 mph N/A   Overcast
8:55 AM 52.0 °F 51.8 °F 99% 29.58 in 7.0 mi SW 13.8 mph 20.7 mph N/A   Overcast
9:14 AM 52.3 °F 52.0 °F 99% 29.59 in 10.0 mi SW 13.8 mph 18.4 mph N/A   Overcast
9:35 AM 52.2 °F 51.8 °F 99% 29.58 in 7.0 mi WSW 18.4 mph 24.2 mph N/A   Overcast
9:54 AM 52.3 °F 51.8 °F 98% 29.58 in 10.0 mi WSW 18.4 mph 23.0 mph N/A   Overcast
10:14 AM 52.7 °F 51.8 °F 97% 29.60 in 10.0 mi WSW 13.8 mph 20.7 mph N/A   Overcast
10:35 AM 52.7 °F 51.8 °F 97% 29.59 in 10.0 mi WSW 16.1 mph 21.9 mph N/A   Overcast
10:54 AM 52.7 °F 51.4 °F 95% 29.60 in 10.0 mi WSW 17.3 mph 24.2 mph N/A   Overcast
11:14 AM 52.9 °F 50.9 °F 93% 29.61 in 10.0 mi WSW 13.8 mph 23.0 mph N/A   Overcast
11:35 AM 52.2 °F 49.5 °F 91% 29.62 in 10.0 mi WSW 21.9 mph 26.5 mph N/A Rain Light Rain
11:54 AM 51.4 °F 48.6 °F 90% 29.63 in 10.0 mi WSW 19.6 mph 29.9 mph N/A   Overcast
12:14 PM 51.3 °F 47.8 °F 88% 29.63 in 10.0 mi WSW 17.3 mph 24.2 mph N/A   Overcast
12:35 PM 51.8 °F 47.5 °F 85% 29.64 in 10.0 mi WSW 19.6 mph 24.2 mph N/A   Overcast
12:54 PM 52.0 °F 47.1 °F 83% 29.64 in 10.0 mi WSW 13.8 mph 24.2 mph N/A   Overcast
1:14 PM 53.6 °F 47.3 °F 79% 29.64 in 10.0 mi WSW 20.7 mph 27.6 mph N/A   Overcast
1:35 PM 53.2 °F 46.0 °F 77% 29.64 in 10.0 mi WSW 19.6 mph 27.6 mph N/A   Overcast
1:54 PM 53.6 °F 47.5 °F 80% 29.64 in 10.0 mi WSW 18.4 mph 24.2 mph N/A   Mostly Cloudy
2:15 PM 54.5 °F 46.8 °F 75% 29.65 in 10.0 mi WSW 20.7 mph 26.5 mph N/A   Scattered Clouds
2:35 PM 54.7 °F 46.6 °F 74% 29.66 in 10.0 mi WSW 21.9 mph 26.5 mph N/A   Scattered Clouds
2:54 PM 54.9 °F 46.6 °F 74% 29.66 in 10.0 mi SW 18.4 mph 25.3 mph N/A   Scattered Clouds
3:15 PM 54.9 °F 45.1 °F 70% 29.67 in 10.0 mi WSW 19.6 mph 27.6 mph N/A   Scattered Clouds
3:35 PM 54.1 °F 44.2 °F 69% 29.67 in 10.0 mi WSW 16.1 mph 29.9 mph N/A   Clear
3:54 PM 54.5 °F 44.2 °F 68% 29.68 in 10.0 mi WSW 23.0 mph 31.1 mph N/A   Clear
4:15 PM 54.5 °F 44.4 °F 69% 29.69 in 10.0 mi WSW 24.2 mph 31.1 mph N/A   Clear
4:34 PM 54.5 °F 43.5 °F 66% 29.69 in 10.0 mi WSW 21.9 mph 33.4 mph N/A   Clear
4:54 PM 52.9 °F 43.0 °F 69% 29.69 in 10.0 mi WSW 21.9 mph 32.2 mph N/A   Scattered Clouds
5:15 PM 52.3 °F 44.4 °F 74% 29.71 in 10.0 mi West 26.5 mph 33.4 mph N/A Rain Rain
5:35 PM 48.4 °F 44.4 °F 86% 29.71 in 10.0 mi WSW 12.7 mph 25.3 mph N/A   Light Drizzle
5:54 PM 49.5 °F 44.8 °F 84% 29.72 in 10.0 mi WSW 16.1 mph 20.7 mph N/A   Overcast
6:15 PM 50.0 °F 42.8 °F 76% 29.72 in 10.0 mi WSW 16.1 mph 32.2 mph N/A   Mostly Cloudy
6:34 PM 49.6 °F 40.5 °F 71% 29.73 in 10.0 mi SW 19.6 mph 28.8 mph N/A   Overcast
6:54 PM 50.0 °F 40.1 °F 69% 29.73 in 10.0 mi WSW 18.4 mph 29.9 mph N/A   Overcast
7:15 PM 50.2 °F 40.3 °F 69% 29.74 in 10.0 mi WSW 21.9 mph 29.9 mph N/A   Overcast
7:34 PM 50.2 °F 39.6 °F 67% 29.74 in 10.0 mi WSW 21.9 mph 34.5 mph N/A   Overcast
7:54 PM 50.0 °F 39.2 °F 66% 29.75 in 10.0 mi WSW 20.7 mph 34.5 mph N/A   Overcast
8:15 PM 50.0 °F 39.7 °F 68% 29.76 in 10.0 mi WSW 20.7 mph 28.8 mph N/A   Overcast
8:34 PM 50.0 °F 39.7 °F 68% 29.76 in 10.0 mi WSW 21.9 mph 28.8 mph N/A   Overcast
8:55 PM 49.6 °F 39.2 °F 67% 29.76 in 10.0 mi WSW 19.6 mph 29.9 mph N/A   Overcast
9:14 PM 49.8 °F 39.9 °F 69% 29.77 in 10.0 mi West 17.3 mph 29.9 mph N/A   Overcast
9:34 PM 49.8 °F 39.2 °F 67% 29.77 in 10.0 mi WSW 19.6 mph 29.9 mph N/A   Overcast
9:55 PM 49.5 °F 39.2 °F 68% 29.77 in 10.0 mi WSW 18.4 mph 31.1 mph N/A   Overcast
10:14 PM 49.1 °F 38.8 °F 68% 29.77 in 10.0 mi WSW 17.3 mph 32.2 mph N/A   Overcast
10:34 PM 49.1 °F 39.2 °F 69% 29.78 in 10.0 mi WSW 19.6 mph 28.8 mph N/A   Overcast
10:55 PM 49.3 °F 39.4 °F 69% 29.77 in 10.0 mi WSW 18.4 mph 32.2 mph N/A   Overcast
11:14 PM 49.1 °F 39.7 °F 70% 29.78 in 10.0 mi WSW 19.6 mph 26.5 mph N/A   Overcast
11:35 PM 49.3 °F 39.9 °F 70% 29.77 in 10.0 mi WSW 18.4 mph 27.6 mph N/A   Overcast
11:55 PM 49.1 °F 40.1 °F 71% 29.77 in 10.0 mi WSW 16.1 mph 27.6 mph N/A   Overcast